This demonstration page uses our WeatherBlox Daily Observations layout. Learn more.

39.29038, -76.61219

Hourly Observations for October 24, 2018

Temp ( °F °C ) Dew Point ( °F °C ) Humidity (%) Winds ( mph kmh ) Pressure ( in mb ) Visibility ( mi km ) Precip ( " mm )
12:54 am 00:54 undefined 53 11.7 34 1.1 48 48 undefined N/A 30.1 1019 N/A 0 0
1:54 am 01:54 undefined 51 10.6 35 1.7 54 54 undefined N/A 30.11 1020 N/A 0 0
2:54 am 02:54 undefined 50 10 35 1.7 57 57 undefined N/A 30.12 1020 N/A 0 0
3:54 am 03:54 undefined 49 9.4 35 1.7 59 59 undefined N/A 30.13 1020 N/A 0 0
4:54 am 04:54 undefined 48 8.9 35 1.7 61 61 undefined N/A 30.14 1021 N/A 0 0
5:54 am 05:54 undefined 48 8.9 33 0.6 56 56 undefined N/A 30.15 1021 N/A 0 0
6:54 am 06:54 undefined 46 7.8 34 1.1 63 63 undefined N/A 30.16 1022 N/A 0 0
7:54 am 07:54 undefined 46 7.8 35 1.7 66 66 undefined N/A 30.18 1022 N/A 0 0
8:54 am 08:54 undefined 48 8.9 33 0.6 56 56 undefined N/A 30.19 1022 N/A 0 0
9:54 am 09:54 undefined 50 10 32 0 50 50 undefined N/A 30.2 1023 N/A 0 0
10:54 am 10:54 undefined 52 11.1 29 -1.7 41 41 undefined N/A 30.21 1023 N/A 0 0
11:54 am 11:54 undefined 53 11.7 29 -1.7 40 40 undefined N/A 30.21 1023 N/A 0 0
12:54 pm 12:54 undefined 55 12.8 29 -1.7 37 37 undefined N/A 30.2 1023 N/A 0 0
1:54 pm 13:54 undefined 55 12.8 29 -1.7 37 37 undefined N/A 30.19 1022 N/A 0 0
2:54 pm 14:54 undefined 56 13.3 29 -1.7 36 36 undefined N/A 30.18 1022 N/A 0 0
3:54 pm 15:54 undefined 55 12.8 29 -1.7 37 37 undefined N/A 30.18 1022 N/A 0 0
4:54 pm 16:54 undefined 54 12.2 29 -1.7 38 38 undefined N/A 30.19 1023 N/A 0 0
5:54 pm 17:54 undefined 54 12.2 29 -1.7 38 38 undefined N/A 30.2 1023 N/A 0 0
6:54 pm 18:54 undefined 53 11.7 29 -1.7 40 40 undefined N/A 30.22 1023 N/A 0 0
7:54 pm 19:54 undefined 52 11.1 30 -1.1 43 43 undefined N/A 30.23 1024 N/A 0 0
8:54 pm 20:54 undefined 50 10 29 -1.7 44 44 undefined N/A 30.24 1024 N/A 0 0
9:54 pm 21:54 undefined 49 9.4 29 -1.7 46 46 undefined N/A 30.24 1024 N/A 0 0
10:54 pm 22:54 undefined 47 8.3 29 -1.7 50 50 undefined N/A 30.26 1025 N/A 0 0
11:54 pm 23:54 undefined 46 7.8 29 -1.7 51 51 undefined N/A 30.26 1025 N/A 0 0

Powered by AerisWeather